Juliana Airport, Sint Maarten

1:32 PM AST on May 26, 2017 (GMT -0400)
Princess Juliana International

Weather History for TNCM - January, 2014

Change the Weather History Date:

Wednesday, January 22, 2014

  Actual Average Record
Temperature  
Mean Temperature 78 °F -  
Max Temperature 81 °F 81 °F 84 °F (1998)
Min Temperature 75 °F 72 °F 71 °F (2000)
Cooling Degree Days 13    
Growing Degree Days 28 (Base 50)    
Moisture  
Dew Point 71 °F    
Average Humidity 76    
Maximum Humidity 89    
Minimum Humidity 65    
Precipitation  
Precipitation 0.02 in 0.06 in - ()
Sea Level Pressure  
Sea Level Pressure 30.02 in    
Wind  
Wind Speed 7 mph ()    
Max Wind Speed 13 mph    
Max Gust Speed -    
Visibility 6.7 miles    
Events Rain    
Averages and records for this station are not official NWS values.
T = Trace of Precipitation, MM = Missing Value Source: Averaged Metar Reports

Daily Weather History Graph

Daily Weather History Graph

Search for Another Location

Airport or City:

Trip Planner

Search our weather history database for the weather conditions in past years. The results will help you decide how hot, cold, wet, or windy it might be!

Date:

Astronomy

Jan. 22, 2014 Rise Set
Actual Time 6:47 AM AST 6:01 PM AST
Civil Twilight 6:23 AM AST 6:24 PM AST
Nautical Twilight 5:57 AM AST 6:50 PM AST
Astronomical Twilight 5:31 AM AST 7:17 PM AST
Moon 11:28 PM AST (1/22) 10:42 AM AST (1/22)
Length of Visible Light 12h 00m
Length of Day
11h 14m
Waning Gibbous, 66% of the Moon is Illuminated
Jan 22
Waning Gibbous
Jan 24
Last Quarter
Jan 30
New
Feb 6
First Quarter
Feb 14
Full

Hourly Weather History & Observations

Time (AST) Temp. Heat Index Dew Point Humidity Pressure Visibility Wind Dir Wind Speed Gust Speed Precip Events Conditions
12:00 AM 77.0 °F - 69.8 °F 78% 30.01 in 6.2 mi East 6.9 mph - N/A   Mostly Cloudy
1:00 AM 77.0 °F - 71.6 °F 83% 30.01 in 6.2 mi East 5.8 mph - N/A   Partly Cloudy
2:00 AM 77 °F - 71 °F 76% 29.99 in 7 mi East 6.9 mph - - Rain Light Rain Showers
2:00 AM 77.0 °F - 69.8 °F 78% 29.98 in 6.2 mi East 6.9 mph - N/A Rain Light Rain Showers
3:00 AM 77.0 °F - 69.8 °F 78% 29.98 in 6.2 mi East 9.2 mph - N/A   Partly Cloudy
4:00 AM 77.0 °F - 71.6 °F 83% 29.98 in 6.2 mi East 6.9 mph - N/A   Scattered Clouds
5:00 AM 77 °F - 71 °F 76% 29.99 in 22 mi East 6.9 mph - - Rain Light Rain Showers
5:00 AM 77.0 °F - 71.6 °F 83% 29.98 in 6.2 mi East 6.9 mph - N/A Rain Light Rain Showers
6:00 AM 77.0 °F - 69.8 °F 78% 29.98 in 6.2 mi East 9.2 mph - N/A   Scattered Clouds
7:00 AM 77.0 °F - 69.8 °F 78% 30.02 in 6.2 mi East 5.8 mph - N/A   Mostly Cloudy
8:00 AM 79 °F - 71 °F 70% 30.05 in 19 mi East 6.9 mph - -   Partly Cloudy
8:00 AM 78.8 °F - 71.6 °F 78% 30.04 in 6.2 mi East 6.9 mph - N/A   Mostly Cloudy
9:00 AM 80.6 °F 84.6 °F 71.6 °F 74% 30.06 in 6.2 mi ESE 9.2 mph - N/A   Scattered Clouds
10:00 AM 80.6 °F 84.6 °F 71.6 °F 74% 30.06 in 6.2 mi ESE 10.4 mph - N/A   Scattered Clouds
11:00 AM 81 °F - 72 °F 66% 30.07 in 25 mi ESE 10.4 mph - -   Partly Cloudy
11:00 AM 80.6 °F 84.6 °F 71.6 °F 74% 30.06 in 6.2 mi ESE 10.4 mph - N/A   Scattered Clouds
12:00 PM 82.4 °F 87.2 °F 71.6 °F 70% 30.04 in 6.2 mi SE 1.2 mph - N/A   Scattered Clouds
1:00 PM 80.6 °F 84.6 °F 71.6 °F 74% 30.01 in 6.2 mi SE 12.7 mph - N/A   Scattered Clouds
2:00 PM 82 °F - 72 °F 65% 30.00 in 31 mi SE 11.5 mph - -   Scattered Clouds
2:00 PM 82.4 °F 87.2 °F 71.6 °F 70% 29.98 in 6.2 mi SE 11.5 mph - N/A   Partly Cloudy
3:00 PM 80.6 °F 84.6 °F 71.6 °F 74% 29.98 in 6.2 mi SE 10.4 mph - N/A   Partly Cloudy
4:00 PM 80.6 °F 84.6 °F 71.6 °F 74% 29.98 in 6.2 mi SE 10.4 mph - N/A   Partly Cloudy
5:00 PM 80 °F - 72 °F 69% 30.01 in 25 mi SE 9.2 mph - -   Scattered Clouds
5:00 PM 80.6 °F 84.6 °F 71.6 °F 74% 30.01 in 6.2 mi SE 9.2 mph - N/A   Partly Cloudy
6:00 PM 78.8 °F - 71.6 °F 78% 30.01 in 6.2 mi SE 8.1 mph - N/A   Partly Cloudy
7:00 PM 78.8 °F - 71.6 °F 78% 30.04 in 6.2 mi ESE 6.9 mph - N/A   Partly Cloudy
8:00 PM 79 °F - 72 °F 73% 30.06 in 22 mi East 3.5 mph - -   Scattered Clouds
8:00 PM 78.8 °F - 71.6 °F 78% 30.04 in 6.2 mi East 3.5 mph - N/A   Partly Cloudy
9:00 PM 78.8 °F - 71.6 °F 78% 30.06 in 6.2 mi East 4.6 mph - N/A   Scattered Clouds
10:00 PM 77.0 °F - 73.4 °F 89% 30.09 in 6.2 mi SE 5.8 mph - N/A   Mostly Cloudy
11:00 PM 78 °F - 73 °F 79% 30.09 in 22 mi East 5.8 mph - -   Partly Cloudy
11:00 PM 77.0 °F - 73.4 °F 89% 30.06 in 6.2 mi East 5.8 mph - N/A   Scattered Clouds